Frankfort, KY

11:59 AM EST on January 18, 2018 (GMT -0500)
Capital City

Weather History for KFFT - July, 2012

Change the Weather History Date:

Saturday, July 7, 2012

  Actual Average Record
Temperature  
Mean Temperature 88 °F 76 °F  
Max Temperature 103 °F 87 °F 103 °F (2012)
Min Temperature 72 °F 66 °F 49 °F (1972)
Degree Days  
Heating Degree Days 0 0  
Month to date heating degree days 0 0  
Since 1 June heating degree days 14 10  
Since 1 July heating degree days 0 0  
Cooling Degree Days 23 11  
Month to date cooling degree days 133 77  
Year to date cooling degree days 545 412  
Since 1 June cooling degree days 364 313  
Growing Degree Days 38 (Base 50)    
Moisture  
Dew Point 68 °F    
Average Humidity 56    
Maximum Humidity 87    
Minimum Humidity 25    
Precipitation  
Precipitation 0.00 in 0.13 in 1.95 in (1934)
Month to date precipitation 0.35 0.86  
Year to date precipitation 19.11 24.42  
Sea Level Pressure  
Sea Level Pressure 29.94 in    
Wind  
Wind Speed 2 mph (WNW)    
Max Wind Speed 10 mph    
Max Gust Speed 17 mph    
Visibility 10 miles    
Events      
T = Trace of Precipitation, MM = Missing Value Source: NWS Daily Summary

Daily Weather History Graph

Daily Weather History Graph

Search for Another Location

Airport or City:

Trip Planner

Search our weather history database for the weather conditions in past years. The results will help you decide how hot, cold, wet, or windy it might be!

Date:

Astronomy

Jul. 07, 2012 Rise Set
Actual Time 6:23 AM EDT 9:05 PM EDT
Civil Twilight 5:52 AM EDT 9:36 PM EDT
Nautical Twilight 5:13 AM EDT 10:15 PM EDT
Astronomical Twilight 4:29 AM EDT 10:59 PM EDT
Moon 11:29 PM EDT (7/7) 10:42 AM EDT (7/7)
Length of Visible Light 15h 43m
Length of Day
14h 41m
Waning Gibbous, 82% of the Moon is Illuminated
Jul 7
Waning Gibbous
Jul 10
Last Quarter
Jul 19
New
Jul 26
First Quarter
Aug 1
Full

Hourly Weather History & Observations

Time (EDT) Temp. Heat Index Dew Point Humidity Pressure Visibility Wind Dir Wind Speed Gust Speed Precip Events Conditions
1:53 AM 75.9 °F - 70.0 °F 82% 29.95 in 10.0 mi Calm Calm - N/A   Clear
2:53 AM 75.9 °F - 70.0 °F 82% 29.95 in 10.0 mi Calm Calm - N/A   Clear
3:53 AM 75.0 °F - 70.0 °F 84% 29.95 in 10.0 mi Calm Calm - N/A   Clear
4:53 AM 73.0 °F - 69.1 °F 87% 29.95 in 10.0 mi Calm Calm - N/A   Clear
5:53 AM 73.0 °F - 70.0 °F 90% 29.97 in 9.0 mi Calm Calm - N/A   Clear
6:53 AM 73.0 °F - 69.1 °F 87% 29.98 in 8.0 mi Calm Calm - N/A   Clear
7:53 AM 78.1 °F - 71.1 °F 79% 29.99 in 10.0 mi Calm Calm - N/A   Clear
8:53 AM 84.9 °F 89.4 °F 70.0 °F 61% 29.99 in 10.0 mi WSW 4.6 mph - N/A   Clear
9:53 AM 90.0 °F 96.4 °F 71.1 °F 54% 29.99 in 10.0 mi Calm Calm - N/A   Clear
10:53 AM 96.1 °F 101.6 °F 69.1 °F 41% 29.98 in 10.0 mi NNW 4.6 mph - N/A   Clear
11:53 AM 97.0 °F 102.8 °F 69.1 °F 40% 29.99 in 10.0 mi Variable 5.8 mph - N/A   Clear
12:53 PM 100.0 °F 104.2 °F 66.0 °F 33% 29.96 in 10.0 mi Variable 3.5 mph - N/A   Clear
1:53 PM 100.0 °F 103.6 °F 64.9 °F 32% 29.95 in 10.0 mi Variable 3.5 mph - N/A   Scattered Clouds
2:53 PM 100.9 °F 103.3 °F 63.0 °F 29% 29.94 in 10.0 mi Variable 3.5 mph - N/A   Clear
3:53 PM 102.0 °F 103.9 °F 62.1 °F 27% 29.92 in 10.0 mi Variable 3.5 mph - N/A   Clear
4:53 PM 100.9 °F 104.0 °F 64.0 °F 30% 29.91 in 10.0 mi WNW 5.8 mph - N/A   Clear
5:53 PM 102.0 °F 103.3 °F 61.0 °F 26% 29.89 in 10.0 mi North 3.5 mph - N/A   Clear
6:53 PM 100.0 °F 101.8 °F 63.0 °F 29% 29.88 in 10.0 mi WSW 3.5 mph - N/A   Clear
7:53 PM 98.1 °F 101.2 °F 64.9 °F 34% 29.88 in 10.0 mi WNW 3.5 mph - N/A   Clear
8:53 PM 91.9 °F 96.9 °F 69.1 °F 47% 29.88 in 10.0 mi Calm Calm - N/A   Clear
9:53 PM 86.0 °F 90.7 °F 70.0 °F 59% 29.90 in 10.0 mi Calm Calm - N/A   Clear
10:53 PM 84.9 °F 89.4 °F 70.0 °F 61% 29.93 in 10.0 mi SW 3.5 mph - N/A   Overcast
11:53 PM 82.0 °F 86.3 °F 71.1 °F 69% 29.93 in 10.0 mi Calm Calm - N/A   Clear